Find Starlink 32898

NORAD ID: 62998 Int'l Des: 2025-031 Owner: SPXS Country: US Constellation: starlink operational
LEOCIRCULAR

Live Position

Loading 3D Globe...

About Starlink 32898

Description loading...

Upcoming Passes

Passes for default location (London). Set your location on the main map for personalized predictions.

Altitude History

Loading altitude history...

Two-Line Element Set

1 62998U 25031T 26125.51768058 .00013772 00000-0 50868-3 0 9991
2 62998 42.9985 182.6322 0001486 279.1882 80.8802 15.27604579 69785
Epoch: May 5, 2026 • Age: 23 hours

Current Status

Altitude 488.5 km
Velocity 7.62 km/s
Sub-Earth Point -25.84°S, 104.82°E
Launch Date Feb 11, 2025
Age 1.2 years
Type internet

Technical Details

Classification Payload
Mass 730.00 kg
Dry Mass 700.00 kg
Total Mass 730.00 kg
Length 0.30 m
Diameter 4.10 m
Span 29.00 m
Shape Box + pan
Manufacturer SPXS
Bus Type Starlink V2M
Phase Status In Orbit
Owner/State SPXS/US

Most Searched